| time (UTC) | temp F | wind direction | speed MPH | gust MPH | rain 1hr in | rain 24hr in | rain mn in | humidity % | barometer mb |
| 20260503004600 | 46 | 0 | 0.0 | 1.0 | 0.00 | 0.00 | 0.00 | 50 | 1016.0 |
| 20260503003113 | 46 | 0 | 0.0 | 2.0 | 0.00 | 0.00 | 0.00 | 49 | 1015.9 |
| 20260503001610 | 47 | 315 | 1.0 | 5.0 | 0.00 | 0.00 | 0.00 | 49 | 1015.9 |
| 20260503000057 | 47 | 324 | 1.0 | 4.0 | 0.00 | 0.00 | 0.00 | 48 | 1015.9 |
| 20260502234548 | 47 | 308 | 2.0 | 8.0 | 0.00 | 0.00 | 0.00 | 49 | 1015.9 |
| 20260502233051 | 47 | 254 | 1.0 | 7.0 | 0.00 | 0.00 | 0.00 | 48 | 1016.0 |
| 20260502231555 | 47 | 338 | 3.0 | 9.0 | 0.00 | 0.00 | 0.00 | 47 | 1016.1 |
| 20260502230051 | 47 | 306 | 4.0 | 9.0 | 0.00 | 0.00 | 0.00 | 47 | 1016.1 |
| 20260502224552 | 47 | 342 | 3.0 | 9.0 | 0.00 | 0.00 | 0.00 | 47 | 1016.2 |
| 20260502223054 | 47 | 327 | 3.0 | 8.0 | 0.00 | 0.00 | 0.00 | 46 | 1016.2 |
| 20260502221554 | 47 | 342 | 2.0 | 8.0 | 0.00 | 0.00 | 0.00 | 45 | 1016.3 |
| 20260502220053 | 47 | 15 | 3.0 | 9.0 | 0.00 | 0.00 | 0.00 | 45 | 1016.3 |
| 20260502214617 | 47 | 337 | 6.0 | 11.0 | 0.00 | 0.00 | 0.00 | 44 | 1016.3 |
| 20260502213056 | 47 | 270 | 4.0 | 10.0 | 0.00 | 0.00 | 0.00 | 46 | 1016.3 |
| 20260502211604 | 47 | 325 | 5.0 | 10.0 | 0.00 | 0.00 | 0.00 | 45 | 1016.4 |
| 20260502210057 | 47 | 322 | 5.0 | 11.0 | 0.00 | 0.00 | 0.00 | 44 | 1016.5 |
| 20260502204554 | 47 | 279 | 2.0 | 12.0 | 0.00 | 0.00 | 0.00 | 47 | 1016.5 |
| 20260502203105 | 47 | 331 | 7.0 | 14.0 | 0.00 | 0.00 | 0.00 | 45 | 1016.7 |
| 20260502201605 | 47 | 339 | 6.0 | 13.0 | 0.00 | 0.00 | 0.00 | 45 | 1016.8 |
| 20260502200053 | 47 | 319 | 5.0 | 10.0 | 0.00 | 0.00 | 0.00 | 45 | 1016.9 |
| 20260502194557 | 46 | 335 | 4.0 | 12.0 | 0.00 | 0.00 | 0.00 | 47 | 1017.0 |
| 20260502193051 | 46 | 298 | 6.0 | 12.0 | 0.00 | 0.00 | 0.00 | 45 | 1017.1 |
| 20260502191553 | 46 | 321 | 3.0 | 13.0 | 0.00 | 0.00 | 0.00 | 44 | 1017.2 |
| 20260502190054 | 46 | 314 | 3.0 | 12.0 | 0.00 | 0.00 | 0.00 | 47 | 1017.4 |
| 20260502184549 | 45 | 329 | 4.0 | 12.0 | 0.00 | 0.00 | 0.00 | 48 | 1017.4 |
| 20260502183058 | 46 | 346 | 6.0 | 14.0 | 0.00 | 0.00 | 0.00 | 46 | 1017.4 |
| 20260502181557 | 45 | 310 | 5.0 | 15.0 | 0.00 | 0.00 | 0.00 | 47 | 1017.5 |
| 20260502180104 | 46 | 271 | 4.0 | 12.0 | 0.00 | 0.00 | 0.00 | 49 | 1017.7 |
| 20260502163103 | 44 | 330 | 6.0 | 13.0 | 0.00 | 0.00 | 0.00 | 51 | 1018.5 |
| 20260502161557 | 44 | 281 | 5.0 | 12.0 | 0.00 | 0.00 | 0.00 | 50 | 1018.4 |
| 20260502160105 | 43 | 23 | 2.0 | 8.0 | 0.00 | 0.00 | 0.00 | 53 | 1018.5 |
| 20260502151556 | 42 | 316 | 3.0 | 10.0 | 0.00 | 0.00 | 0.00 | 58 | 1018.1 |
| 20260502123055 | 38 | 337 | 5.0 | 9.0 | 0.00 | 0.00 | 0.00 | 72 | 1018.0 |
| 20260502121555 | 38 | 352 | 4.0 | 9.0 | 0.00 | 0.00 | 0.00 | 74 | 1017.9 |
| 20260502120107 | 37 | 11 | 4.0 | 9.0 | 0.00 | 0.00 | 0.00 | 77 | 1017.8 |
| 20260502114634 | 35 | 346 | 2.0 | 5.0 | 0.00 | 0.00 | 0.00 | 79 | 1017.8 |
| 20260502113057 | 35 | 355 | 2.0 | 4.0 | 0.00 | 0.00 | 0.00 | 80 | 1017.6 |
| 20260502111555 | 34 | 322 | 1.0 | 4.0 | 0.00 | 0.00 | 0.00 | 80 | 1017.6 |
| 20260502110053 | 34 | 327 | 1.0 | 4.0 | 0.00 | 0.00 | 0.00 | 79 | 1017.5 |
| 20260502104551 | 34 | 319 | 1.0 | 4.0 | 0.00 | 0.02 | 0.00 | 79 | 1017.3 |
| 20260502103054 | 34 | 300 | 2.0 | 7.0 | 0.00 | 0.02 | 0.00 | 79 | 1017.2 |
| 20260502101614 | 35 | 317 | 3.0 | 7.0 | 0.00 | 0.02 | 0.00 | 78 | 1017.3 |
| 20260502100108 | 35 | 325 | 2.0 | 6.0 | 0.00 | 0.02 | 0.00 | 78 | 1017.1 |
| 20260502064620 | 40 | 305 | 2.0 | 7.0 | 0.00 | 0.11 | 0.00 | 70 | 1016.6 |
| 20260502063111 | 40 | 314 | 4.0 | 10.0 | 0.00 | 0.11 | 0.00 | 71 | 1016.6 |
| 20260502061555 | 40 | 322 | 3.0 | 6.0 | 0.00 | 0.11 | 0.00 | 74 | 1016.7 |
| 20260502060054 | 40 | 318 | 1.0 | 4.0 | 0.00 | 0.11 | 0.00 | 74 | 1016.7 |
| 20260502054552 | 40 | 286 | 2.0 | 4.0 | 0.00 | 0.18 | 0.00 | 73 | 1016.8 |
| 20260502053058 | 40 | 319 | 2.0 | 7.0 | 0.00 | 0.18 | 0.00 | 73 | 1016.8 |
| 20260502051552 | 40 | 325 | 2.0 | 7.0 | 0.00 | 0.18 | 0.00 | 74 | 1016.8 |
| 20260502050049 | 40 | 321 | 2.0 | 5.0 | 0.00 | 0.18 | 0.00 | 75 | 1016.9 |
| 20260502044607 | 40 | 309 | 3.0 | 5.0 | 0.00 | 0.23 | 0.00 | 75 | 1016.8 |
| 20260502043124 | 40 | 300 | 2.0 | 5.0 | 0.00 | 0.23 | 0.00 | 75 | 1016.7 |
| 20260502041604 | 40 | 304 | 1.0 | 4.0 | 0.00 | 0.23 | 0.00 | 74 | 1016.6 |
| 20260502040057 | 40 | 313 | 1.0 | 3.0 | 0.00 | 0.23 | 0.00 | 75 | 1016.6 |
| 20260502034556 | 40 | 313 | 1.0 | 3.0 | 0.00 | 0.25 | 0.23 | 74 | 1016.6 |
| 20260502033051 | 40 | 318 | 1.0 | 4.0 | 0.00 | 0.25 | 0.23 | 73 | 1016.5 |
| 20260502031558 | 41 | 323 | 1.0 | 4.0 | 0.00 | 0.25 | 0.23 | 72 | 1016.5 |
| 20260502030051 | 41 | 324 | 1.0 | 4.0 | 0.00 | 0.25 | 0.23 | 71 | 1016.4 |
| 20260502024549 | 42 | 321 | 2.0 | 4.0 | 0.00 | 0.26 | 0.23 | 72 | 1016.4 |
| 20260502023101 | 42 | 343 | 2.0 | 5.0 | 0.00 | 0.26 | 0.23 | 73 | 1016.3 |
| 20260502021554 | 42 | 345 | 1.0 | 4.0 | 0.00 | 0.26 | 0.23 | 73 | 1016.3 |
| 20260502020050 | 43 | 355 | 2.0 | 5.0 | 0.00 | 0.26 | 0.23 | 72 | 1016.2 |
| 20260502014557 | 43 | 334 | 2.0 | 5.0 | 0.00 | 0.26 | 0.23 | 72 | 1015.9 |
| 20260502013059 | 43 | 339 | 2.0 | 4.0 | 0.00 | 0.26 | 0.23 | 71 | 1015.7 |
| 20260502011602 | 44 | 331 | 1.0 | 4.0 | 0.00 | 0.26 | 0.23 | 70 | 1015.5 |